Weather Roundup
Issued by NWS Springfield, MO

Home | Current Version | Previous Version | Text Only | Print | Product List | Glossary On
Versions: 1 2 3 4 5 6 7 8 9 10 11 12 13 14 15 16 17 18 19 20 21 22 23 24 25 26 27 28 29 30 31 32 33 34 35 36 37 38 39 40 41 42 43 44 45 46 47 48 49 50
000
NZUS99 KSGF 191207
HRRSGF

HOURLY WEATHER
NATIONAL WEATHER SERVICE SPRINGFIELD MO
600 AM CST SUN NOV 19 2017

......SGF CWA......

CITY           SKY/WX    TMP DP  RH WIND       PRES   REMARKS
SPRINGFIELD    CLEAR     32  28  85 NW5       30.23R WCI  27
6HR MIN TEMP:  30; 6HR MAX TEMP:  38;

JOPLIN         PTCLDY    33  30  88 CALM      30.28R
6HR MIN TEMP:  31; 6HR MAX TEMP:  37;

WEST PLAINS    CLEAR     33  19  56 NW10      30.19R WCI  25
6HR MIN TEMP:  33; 6HR MAX TEMP:  41;

ROLLA          CLEAR     29  21  72 NW9       30.18R WCI  20
6HR MIN TEMP:  29; 6HR MAX TEMP:  36;

OSAGE BEACH    CLEAR     33  20  58 VRB6      30.22R WCI  28
BRANSON        CLEAR     36  27  69 NW6       30.24S WCI  31

......SURROUNDING SGF CWA......

CITY           SKY/WX    TMP DP  RH WIND       PRES   REMARKS
CHANUTE        CLEAR     30  26  85 NW3       30.29R
PARSONS        CLEAR     27  26  96 CALM      30.30R
COFFEYVILLE    CLEAR     31  28  89 CALM      30.30R
EMPORIA        CLEAR     28  23  81 NW5       30.28R WCI  23
GROVE OK       CLEAR     36  32  87 CALM        N/A
ROGERS AR      CLEAR     33  28  81 NW3       30.27R
SILOAM SPRINGS CLEAR     32  28  85 NW3       30.28R
HARRISON AR    CLEAR     33  27  78 NW5       30.23R WCI  29
NEAR YELLVILLE CLEAR     38  26  62 NW7       30.25R WCI  33

......KANSAS AND MISSOURI......

CITY           SKY/WX    TMP DP  RH WIND       PRES   REMARKS
KANSAS CTY INT CLEAR     28  23  81 NW5       30.25S WCI  23
DOWNTOWN KC    CLEAR     32  24  72 NW3       30.26S
COLUMBIA       CLEAR     31  21  66 NW15      30.20R WCI  20
SEDALIA        CLEAR     32  24  72 NW12      30.24R WCI  23
ST JOSEPH      CLEAR     28  21  75 CALM      30.25F
ST LOUIS       PTCLDY    31  21  66 NW8       30.14R WCI  23
SPIRIT OF STL  CLEAR     32  23  69 W9        30.15R WCI  24
KIRKSVILLE     CLEAR     26  20  77 NW9       30.19R WCI  17
WICHITA        CLEAR     28  22  78 CALM      30.28R
TOPEKA         CLEAR     27  24  89 CALM      30.28R
OLATHE         PTCLDY    30  24  78 N5        30.25S WCI  25

......TENNESSEE......

CITY           SKY/WX    TMP DP  RH WIND       PRES   REMARKS
MEMPHIS        PTCLDY    39  32  76 NW6       30.17R WCI  35
NASHVILLE      CLOUDY    42  31  64 NW6       30.07R

......ARKANSAS.......

CITY           SKY/WX    TMP DP  RH WIND       PRES   REMARKS
FAYETTEVILLE   CLEAR     27  27 100 S3        30.26R
FT SMITH       CLEAR     36  32  85 W9        30.29R WCI  29
LITTLE ROCK    PTCLDY    38  34  85 NW5       30.25R WCI  34

......OKLAHOMA.......

CITY           SKY/WX    TMP DP  RH WIND       PRES   REMARKS
TULSA          CLEAR     37  27  67 CALM      30.32R
PONCA CITY     CLEAR     27  22  81 CALM      30.31R
MCALESTER      CLEAR     31  28  89 CALM      30.32R
OKLAHOMA CITY  CLEAR     34  24  67 CALM      30.32R

......IOWA............

CITY           SKY/WX    TMP DP  RH WIND       PRES   REMARKS
DES MOINES     PTCLDY    23  15  71 W5        30.17F WCI  17
QUAD CITIES    CLEAR     24  15  68 NW16      30.09R WCI  11

......ILLINOIS........

CITY           SKY/WX    TMP DP  RH WIND       PRES   REMARKS
QUINCY         CLEAR     27  16  63 NW14      30.14R WCI  16
CHICAGO        CLOUDY    31  20  63 W12G20    29.94R WCI  22




USA.gov is the U.S. government's official web portal to all federal, state and local government web resources and services.